Weather Roundup
Issued by NWS Springfield, MO

Home | Current Version | Previous Version | Text Only | Print | Product List | Glossary On
Versions: 1 2 3 4 5 6 7 8 9 10 11 12 13 14 15 16 17 18 19 20 21 22 23 24 25 26 27 28 29 30 31 32 33 34 35 36 37 38 39 40 41 42 43 44 45 46 47 48 49 50
000
NZUS99 KSGF 190657
HRRSGF

HOURLY WEATHER
NATIONAL WEATHER SERVICE SPRINGFIELD MO
100 AM CST FRI JAN 19 2018

......SGF CWA......

CITY           SKY/WX    TMP DP  RH WIND       PRES   REMARKS
SPRINGFIELD    CLOUDY    28  12  51 S8        30.14F WCI  20
JOPLIN         CLOUDY    33  15  47 S17G26    30.14F WCI  22
WEST PLAINS    CLOUDY    28  11  48 SW6       30.18F WCI  22
ROLLA          CLOUDY    30  12  47 S12       30.11F WCI  20

......SURROUNDING SGF CWA......

CITY           SKY/WX    TMP DP  RH WIND       PRES   REMARKS
CHANUTE        CLOUDY    33  16  49 S15       30.09F WCI  23
PARSONS        CLOUDY    33  16  49 S12G21    30.13F WCI  24
COFFEYVILLE    CLOUDY    33  15  47 S16       30.14F WCI  23
EMPORIA        CLOUDY    33  18  53 S14       30.01F WCI  23
HARRISON AR    CLOUDY    30   9  41 SE9       30.18F WCI  22

......KANSAS AND MISSOURI......

CITY           SKY/WX    TMP DP  RH WIND       PRES   REMARKS
KANSAS CTY INT CLOUDY    36  19  50 SW18G26   29.99F WCI  26
SEDALIA        CLOUDY    35  18  49 SW18G25   30.06F WCI  24
ST JOSEPH      CLOUDY    36  24  62 SW13      29.97F WCI  27
ST LOUIS       CLOUDY    33  13  43 SW8       30.12F WCI  26
WICHITA        CLOUDY    34  17  50 S17       30.03F WCI  23
TOPEKA         CLOUDY    37  22  54 S7        29.99F WCI  32
OLATHE         CLOUDY    32  19  58 S10       30.02F WCI  24

......TENNESSEE......

CITY           SKY/WX    TMP DP  RH WIND       PRES   REMARKS
MEMPHIS        NOT AVBL
NASHVILLE      FAIR      21  13  71 S6        30.32F WCI  13

......ARKANSAS.......

CITY           SKY/WX    TMP DP  RH WIND       PRES   REMARKS
FAYETTEVILLE   CLOUDY    32  10  40 S10       30.21F WCI  24
FT SMITH       CLOUDY    24  15  68 CALM      30.28S
LITTLE ROCK    FAIR      22  15  75 SE3       30.32F

......OKLAHOMA.......

CITY           SKY/WX    TMP DP  RH WIND       PRES   REMARKS
TULSA          CLOUDY    34  14  43 S14       30.17F WCI  25
PONCA CITY     PTCLDY    34  13  41 S12G22    30.10F WCI  25
MCALESTER      CLOUDY    32  15  49 S7        30.25F WCI  26
OKLAHOMA CITY  CLOUDY    26  13  57 S9        30.15F WCI  17

......IOWA............

CITY           SKY/WX    TMP DP  RH WIND       PRES   REMARKS
DES MOINES     NOT AVBL
QUAD CITIES    FAIR      31  20  63 SW8       29.94F WCI  23

......ILLINOIS........

CITY           SKY/WX    TMP DP  RH WIND       PRES   REMARKS
QUINCY         CLOUDY    32  20  61 SW13      30.02F WCI  22
CHICAGO        FAIR      30  18  60 SW10      29.93F WCI  21




USA.gov is the U.S. government's official web portal to all federal, state and local government web resources and services.